Zurück zum Katalog

COSMOS 546

AktivNavigationVLEO
NORAD 6350·PAYLOAD·🇷🇺 Russia

Gestartet Jan 26, 1973 von Kapustin Yar

Loading…

Nächste Überflüge (nächste 24 Stunden)

TLE

AktuellSource: Space-Track

Epoche: Sep 13, 2026, 22:13 UTC

1  6350U 73005A   26256.92577425  .00001588  00000-0  65217-4 0  9998
2  6350  50.6345  86.0833 0014635 277.8965  82.0341 15.30443579956818

Verfolge COSMOS 546 in Echtzeit mit AllMySat

Download on the App Store